Location: St. Louis
(38.6270°N, 90.1994°W)
Time: 11:02:35
(UTC-05:00)

ISS - Pass Details

Date: 06 February 2014
Orbit: 402 x 403 km, 51.6° (Epoch: 25 June)

Event Time Altitude Azimuth Distance (km) Brightness Sun altitude
Rises 18:44:48 0° 256° (WSW) 2,310 2.4 -15.3°
Reaches altitude 10° 18:47:04 10° 269° (W) 1,452 0.8 -15.7°
Maximum altitude 18:49:55 28° 330° (NNW) 796 -1.6 -16.3°
Enters shadow 18:51:33 18° 16° (NNE) 1,056 -1.5 -16.6°
